| time (UTC) | temp C | wind direction | speed KPH | gust KPH | rain 1hr cm | rain 24hr cm | rain mn cm | humidity % | barometer mb |
| 20260507123030 | 20 | 146 | 9.7 | 20.9 | 0.00 | 0.00 | 0.00 | 73 | 1012.3 |
| 20260507122530 | 20 | 239 | 8.0 | 14.5 | 0.00 | 0.00 | 0.00 | 73 | 1012.3 |
| 20260507122030 | 20 | 200 | 6.4 | 12.9 | 0.00 | 0.00 | 0.00 | 74 | 1012.3 |
| 20260507121530 | 20 | 302 | 0.0 | 19.3 | 0.00 | 0.00 | 0.00 | 75 | 1012.2 |
| 20260507121033 | 20 | 157 | 11.3 | 12.9 | 0.00 | 0.00 | 0.00 | 74 | 1012.3 |
| 20260507120530 | 20 | 56 | 1.6 | 12.9 | 0.00 | 0.00 | 0.00 | 73 | 1012.3 |
| 20260507120035 | 20 | 131 | 11.3 | 16.1 | 0.00 | 0.00 | 0.00 | 73 | 1012.3 |
| 20260507115530 | 20 | 136 | 6.4 | 17.7 | 0.00 | 0.00 | 0.00 | 73 | 1012.4 |
| 20260507115030 | 20 | 106 | 0.0 | 17.7 | 0.00 | 0.00 | 0.00 | 76 | 1012.2 |
| 20260507114539 | 20 | 209 | 6.4 | 19.3 | 0.00 | 0.00 | 0.00 | 75 | 1012.3 |
| 20260507114030 | 20 | 91 | 9.7 | 14.5 | 0.00 | 0.00 | 0.00 | 73 | 1012.5 |
| 20260507113539 | 20 | 153 | 4.8 | 12.9 | 0.00 | 0.00 | 0.00 | 72 | 1012.6 |
| 20260507113036 | 20 | 96 | 4.8 | 14.5 | 0.00 | 0.00 | 0.00 | 72 | 1012.6 |
| 20260507112533 | 20 | 212 | 0.0 | 14.5 | 0.00 | 0.00 | 0.00 | 72 | 1012.6 |
| 20260507112030 | 20 | 129 | 3.2 | 12.9 | 0.00 | 0.00 | 0.00 | 71 | 1012.6 |
| 20260507111533 | 20 | 138 | 3.2 | 16.1 | 0.00 | 0.00 | 0.00 | 70 | 1012.6 |
| 20260507111033 | 20 | 65 | 4.8 | 16.1 | 0.00 | 0.00 | 0.00 | 71 | 1012.7 |
| 20260507110536 | 20 | 302 | 0.0 | 11.3 | 0.00 | 0.00 | 0.00 | 71 | 1012.6 |
| 20260507110033 | 20 | 152 | 4.8 | 11.3 | 0.00 | 0.00 | 0.00 | 73 | 1012.6 |
| 20260507105530 | 20 | 274 | 3.2 | 16.1 | 0.00 | 0.00 | 0.00 | 74 | 1012.5 |
| 20260507105030 | 20 | 151 | 3.2 | 11.3 | 0.00 | 0.00 | 0.00 | 75 | 1012.4 |
| 20260507104530 | 19 | 312 | 1.6 | 14.5 | 0.00 | 0.00 | 0.00 | 75 | 1012.5 |
| 20260507104033 | 19 | 140 | 1.6 | 11.3 | 0.00 | 0.00 | 0.00 | 76 | 1012.5 |
| 20260507103530 | 18 | 126 | 11.3 | 20.9 | 0.00 | 0.00 | 0.00 | 78 | 1012.5 |
| 20260507103030 | 19 | 74 | 1.6 | 17.7 | 0.00 | 0.00 | 0.00 | 76 | 1012.5 |
| 20260507102530 | 18 | 95 | 17.7 | 20.9 | 0.00 | 0.00 | 0.00 | 76 | 1012.6 |
| 20260507102033 | 18 | 264 | 1.6 | 20.9 | 0.00 | 0.00 | 0.00 | 77 | 1012.5 |
| 20260507101530 | 18 | 142 | 3.2 | 19.3 | 0.00 | 0.00 | 0.00 | 79 | 1012.4 |
| 20260507101033 | 18 | 145 | 12.9 | 20.9 | 0.00 | 0.00 | 0.00 | 81 | 1012.5 |
| 20260507100533 | 17 | 153 | 8.0 | 24.1 | 0.00 | 0.00 | 0.00 | 81 | 1012.5 |
| 20260507100036 | 18 | 152 | 16.1 | 19.3 | 0.00 | 0.00 | 0.00 | 80 | 1012.5 |
| 20260507095533 | 18 | 139 | 6.4 | 16.1 | 0.00 | 0.00 | 0.00 | 79 | 1012.4 |
| 20260507095036 | 18 | 135 | 14.5 | 25.7 | 0.00 | 0.00 | 0.00 | 78 | 1012.5 |
| 20260507094530 | 18 | 128 | 20.9 | 22.5 | 0.00 | 0.00 | 0.00 | 77 | 1012.5 |
| 20260507094030 | 18 | 130 | 3.2 | 16.1 | 0.00 | 0.00 | 0.00 | 78 | 1012.5 |
| 20260507093533 | 19 | 138 | 4.8 | 22.5 | 0.00 | 0.00 | 0.00 | 77 | 1012.5 |
| 20260507093039 | 19 | 135 | 14.5 | 22.5 | 0.00 | 0.00 | 0.00 | 76 | 1012.5 |
| 20260507092533 | 19 | 286 | 1.6 | 24.1 | 0.00 | 0.00 | 0.00 | 78 | 1012.4 |
| 20260507092033 | 18 | 169 | 17.7 | 20.9 | 0.00 | 0.00 | 0.00 | 77 | 1012.4 |
| 20260507091533 | 18 | 138 | 14.5 | 24.1 | 0.00 | 0.00 | 0.00 | 75 | 1012.4 |
| 20260507091030 | 19 | 88 | 1.6 | 22.5 | 0.00 | 0.00 | 0.00 | 75 | 1012.3 |
| 20260507090533 | 19 | 105 | 17.7 | 19.3 | 0.00 | 0.00 | 0.00 | 75 | 1012.3 |
| 20260507090033 | 19 | 219 | 1.6 | 25.7 | 0.00 | 0.00 | 0.00 | 75 | 1012.3 |
| 20260507085530 | 19 | 141 | 6.4 | 22.5 | 0.00 | 0.00 | 0.00 | 75 | 1012.3 |
| 20260507085039 | 18 | 107 | 1.6 | 30.6 | 0.00 | 0.00 | 0.00 | 75 | 1012.3 |
| 20260507084530 | 18 | 145 | 8.0 | 16.1 | 0.00 | 0.00 | 0.00 | 76 | 1012.2 |
| 20260507084030 | 18 | 140 | 4.8 | 20.9 | 0.00 | 0.00 | 0.00 | 76 | 1012.1 |
| 20260507083533 | 19 | 116 | 9.7 | 19.3 | 0.00 | 0.00 | 0.00 | 75 | 1012.1 |
| 20260507083030 | 19 | 98 | 3.2 | 16.1 | 0.00 | 0.00 | 0.00 | 75 | 1012.1 |
| 20260507082530 | 18 | 130 | 3.2 | 11.3 | 0.00 | 0.00 | 0.00 | 77 | 1012.1 |
| 20260507082030 | 17 | 260 | 0.0 | 19.3 | 0.00 | 0.00 | 0.00 | 78 | 1012.1 |
| 20260507081536 | 17 | 117 | 11.3 | 17.7 | 0.00 | 0.00 | 0.00 | 79 | 1011.9 |
| 20260507081030 | 17 | 138 | 8.0 | 24.1 | 0.00 | 0.00 | 0.00 | 78 | 1011.9 |
| 20260507080530 | 17 | 144 | 3.2 | 17.7 | 0.00 | 0.00 | 0.00 | 78 | 1011.8 |
| 20260507080035 | 17 | 90 | 3.2 | 17.7 | 0.00 | 0.00 | 0.00 | 78 | 1011.8 |
| 20260507075530 | 17 | 355 | 4.8 | 16.1 | 0.00 | 0.00 | 0.00 | 78 | 1011.9 |
| 20260507075030 | 17 | 114 | 4.8 | 20.9 | 0.00 | 0.00 | 0.00 | 78 | 1011.7 |
| 20260507074533 | 17 | 113 | 22.5 | 22.5 | 0.00 | 0.00 | 0.00 | 77 | 1011.6 |
| 20260507074033 | 17 | 123 | 4.8 | 17.7 | 0.00 | 0.00 | 0.00 | 76 | 1011.6 |
| 20260507073530 | 17 | 136 | 6.4 | 19.3 | 0.00 | 0.00 | 0.00 | 75 | 1011.5 |
| 20260507073039 | 17 | 227 | 6.4 | 20.9 | 0.00 | 0.00 | 0.00 | 76 | 1011.5 |
| 20260507072530 | 17 | 102 | 9.7 | 12.9 | 0.00 | 0.00 | 0.00 | 75 | 1011.4 |
| 20260507072036 | 17 | 142 | 8.0 | 16.1 | 0.00 | 0.00 | 0.00 | 75 | 1011.4 |
| 20260507071530 | 17 | 244 | 1.6 | 20.9 | 0.00 | 0.00 | 0.00 | 74 | 1011.4 |
| 20260507071030 | 17 | 79 | 1.6 | 16.1 | 0.00 | 0.00 | 0.00 | 75 | 1011.4 |
| 20260507070539 | 17 | 128 | 3.2 | 17.7 | 0.00 | 0.00 | 0.00 | 74 | 1011.4 |
| 20260507070030 | 17 | 84 | 11.3 | 25.7 | 0.00 | 0.00 | 0.00 | 74 | 1011.3 |
| 20260507065530 | 17 | 121 | 0.0 | 16.1 | 0.00 | 0.00 | 0.00 | 74 | 1011.3 |
| 20260507065030 | 17 | 121 | 4.8 | 16.1 | 0.00 | 0.03 | 0.00 | 75 | 1011.3 |
| 20260507064530 | 17 | 125 | 11.3 | 14.5 | 0.00 | 0.08 | 0.00 | 75 | 1011.3 |
| 20260507064033 | 17 | 96 | 1.6 | 12.9 | 0.00 | 0.08 | 0.00 | 75 | 1011.3 |
| 20260507063530 | 17 | 129 | 8.0 | 14.5 | 0.00 | 0.08 | 0.00 | 76 | 1011.3 |
| 20260507063030 | 17 | 236 | 4.8 | 9.7 | 0.00 | 0.08 | 0.00 | 76 | 1011.2 |
| 20260507062533 | 17 | 117 | 9.7 | 16.1 | 0.00 | 0.10 | 0.00 | 75 | 1011.3 |
| 20260507062033 | 17 | 104 | 0.0 | 17.7 | 0.00 | 0.10 | 0.00 | 75 | 1011.2 |
| 20260507061533 | 17 | 116 | 1.6 | 14.5 | 0.00 | 0.10 | 0.00 | 75 | 1011.2 |
| 20260507061030 | 17 | 112 | 0.0 | 12.9 | 0.00 | 0.10 | 0.00 | 75 | 1011.2 |
| 20260507060530 | 17 | 80 | 0.0 | 8.0 | 0.00 | 0.10 | 0.00 | 76 | 1011.1 |
| 20260507060030 | 17 | 86 | 0.0 | 9.7 | 0.00 | 0.10 | 0.00 | 77 | 1011.0 |
| 20260507055536 | 17 | 55 | 3.2 | 14.5 | 0.00 | 0.10 | 0.00 | 77 | 1011.0 |
| 20260507055036 | 17 | 111 | 3.2 | 3.2 | 0.00 | 0.10 | 0.00 | 79 | 1011.1 |
| 20260507054530 | 16 | 131 | 0.0 | 6.4 | 0.00 | 0.10 | 0.00 | 79 | 1011.1 |
| 20260507054039 | 16 | 92 | 0.0 | 4.8 | 0.00 | 0.10 | 0.00 | 79 | 1011.0 |
| 20260507053533 | 16 | 123 | 1.6 | 9.7 | 0.00 | 0.10 | 0.00 | 79 | 1011.0 |
| 20260507053030 | 16 | 133 | 1.6 | 4.8 | 0.00 | 0.13 | 0.00 | 79 | 1010.9 |
| 20260507052533 | 16 | 127 | 0.0 | 4.8 | 0.00 | 0.13 | 0.00 | 80 | 1011.0 |
| 20260507052036 | 16 | 146 | 0.0 | 11.3 | 0.00 | 0.13 | 0.00 | 80 | 1011.0 |
| 20260507051530 | 16 | 108 | 0.0 | 9.7 | 0.00 | 0.13 | 0.00 | 80 | 1010.8 |
| 20260507051036 | 16 | 111 | 0.0 | 6.4 | 0.00 | 0.13 | 0.00 | 80 | 1010.8 |
| 20260507050533 | 16 | 132 | 1.6 | 9.7 | 0.00 | 0.13 | 0.00 | 81 | 1010.6 |
| 20260507050033 | 16 | 106 | 1.6 | 4.8 | 0.00 | 0.13 | 0.00 | 81 | 1010.5 |
| 20260507045533 | 16 | 69 | 4.8 | 9.7 | 0.00 | 0.13 | 0.00 | 81 | 1010.4 |
| 20260507045030 | 16 | 111 | 0.0 | 12.9 | 0.00 | 0.13 | 0.00 | 81 | 1010.4 |
| 20260507044530 | 16 | 114 | 4.8 | 9.7 | 0.00 | 0.13 | 0.00 | 81 | 1010.4 |
| 20260507044030 | 16 | 96 | 3.2 | 14.5 | 0.00 | 0.13 | 0.00 | 81 | 1010.4 |
| 20260507043530 | 16 | 115 | 0.0 | 9.7 | 0.00 | 0.13 | 0.00 | 81 | 1010.4 |
| 20260507043033 | 16 | 131 | 1.6 | 11.3 | 0.00 | 0.13 | 0.00 | 81 | 1010.3 |
| 20260507042530 | 16 | 80 | 3.2 | 11.3 | 0.00 | 0.13 | 0.00 | 81 | 1010.4 |
| 20260507042033 | 16 | 126 | 0.0 | 11.3 | 0.00 | 0.13 | 0.00 | 81 | 1010.3 |
| 20260507041539 | 16 | 119 | 1.6 | 6.4 | 0.00 | 0.13 | 0.00 | 82 | 1010.2 |
| 20260507041030 | 16 | 119 | 0.0 | 6.4 | 0.00 | 0.18 | 0.00 | 82 | 1010.2 |
| 20260507040536 | 16 | 109 | 1.6 | 8.0 | 0.00 | 0.18 | 0.00 | 82 | 1010.2 |
| 20260507040030 | 16 | 125 | 0.0 | 17.7 | 0.00 | 0.20 | 0.00 | 82 | 1010.3 |
| 20260507035530 | 16 | 136 | 1.6 | 14.5 | 0.00 | 0.23 | 0.00 | 81 | 1010.2 |
| 20260507035033 | 16 | 110 | 1.6 | 11.3 | 0.00 | 0.23 | 0.00 | 81 | 1010.2 |
| 20260507034533 | 16 | 125 | 0.0 | 6.4 | 0.00 | 0.25 | 0.00 | 81 | 1010.2 |
| 20260507034030 | 16 | 88 | 0.0 | 6.4 | 0.00 | 0.25 | 0.00 | 81 | 1010.3 |
| 20260507033533 | 16 | 139 | 0.0 | 8.0 | 0.00 | 0.25 | 0.00 | 81 | 1010.2 |
| 20260507033030 | 16 | 134 | 0.0 | 11.3 | 0.00 | 0.25 | 0.00 | 81 | 1010.2 |
| 20260507032539 | 16 | 128 | 1.6 | 11.3 | 0.00 | 0.25 | 0.00 | 81 | 1010.2 |
| 20260507032030 | 16 | 151 | 6.4 | 9.7 | 0.00 | 0.25 | 0.00 | 81 | 1010.1 |
| 20260507031530 | 16 | 96 | 1.6 | 16.1 | 0.00 | 0.25 | 0.00 | 81 | 1010.1 |
| 20260507031030 | 16 | 101 | 6.4 | 9.7 | 0.00 | 0.25 | 0.00 | 81 | 1010.2 |
| 20260507030530 | 16 | 113 | 3.2 | 11.3 | 0.00 | 0.25 | 0.00 | 81 | 1010.2 |
| 20260507030030 | 16 | 72 | 0.0 | 16.1 | 0.00 | 0.25 | 0.00 | 81 | 1010.2 |
| 20260507025536 | 16 | 155 | 11.3 | 14.5 | 0.00 | 0.25 | 0.00 | 81 | 1010.1 |
| 20260507025030 | 16 | 135 | 4.8 | 16.1 | 0.00 | 0.25 | 0.00 | 81 | 1010.1 |
| 20260507024530 | 16 | 68 | 3.2 | 6.4 | 0.00 | 0.25 | 0.00 | 81 | 1010.1 |
| 20260507024030 | 16 | 132 | 4.8 | 6.4 | 0.00 | 0.28 | 0.00 | 81 | 1010.1 |
| 20260507023533 | 16 | 126 | 0.0 | 9.7 | 0.00 | 0.28 | 0.00 | 81 | 1010.1 |
| 20260507023030 | 16 | 117 | 0.0 | 6.4 | 0.00 | 0.28 | 0.00 | 81 | 1010.1 |
| 20260507022533 | 16 | 184 | 6.4 | 9.7 | 0.00 | 0.28 | 0.00 | 81 | 1010.1 |
| 20260507022033 | 16 | 129 | 4.8 | 11.3 | 0.00 | 0.28 | 0.00 | 81 | 1010.2 |
| 20260507021539 | 16 | 105 | 1.6 | 8.0 | 0.00 | 0.30 | 0.00 | 81 | 1010.2 |
| 20260507021036 | 16 | 147 | 1.6 | 11.3 | 0.00 | 0.33 | 0.00 | 81 | 1010.1 |
| 20260507020533 | 16 | 138 | 1.6 | 16.1 | 0.00 | 0.33 | 0.00 | 81 | 1010.1 |
| 20260507020036 | 16 | 115 | 1.6 | 16.1 | 0.00 | 0.71 | 0.00 | 79 | 1010.2 |
| 20260507015533 | 16 | 144 | 4.8 | 16.1 | 0.00 | 0.74 | 0.00 | 79 | 1010.1 |
| 20260507015030 | 16 | 146 | 1.6 | 9.7 | 0.00 | 0.81 | 0.00 | 79 | 1010.1 |
| 20260507014530 | 16 | 131 | 1.6 | 12.9 | 0.00 | 0.91 | 0.00 | 79 | 1010.1 |
| 20260507014033 | 16 | 133 | 3.2 | 9.7 | 0.00 | 0.97 | 0.00 | 78 | 1010.0 |
| 20260507013530 | 16 | 91 | 6.4 | 14.5 | 0.00 | 1.02 | 0.00 | 78 | 1010.1 |
| 20260507013036 | 16 | 148 | 3.2 | 11.3 | 0.00 | 1.17 | 0.00 | 78 | 1010.1 |
| 20260507012530 | 16 | 152 | 4.8 | 11.3 | 0.00 | 1.30 | 0.00 | 78 | 1010.2 |
| 20260507012033 | 16 | 149 | 3.2 | 11.3 | 0.00 | 1.40 | 0.00 | 78 | 1010.2 |
| 20260507011530 | 16 | 139 | 6.4 | 12.9 | 0.00 | 1.45 | 0.00 | 78 | 1010.2 |
| 20260507011036 | 16 | 144 | 8.0 | 11.3 | 0.00 | 1.63 | 0.00 | 78 | 1010.3 |
| 20260507010533 | 16 | 182 | 1.6 | 9.7 | 0.00 | 1.68 | 0.00 | 78 | 1010.2 |
| 20260507010039 | 16 | 157 | 8.0 | 14.5 | 0.00 | 1.70 | 0.00 | 78 | 1010.3 |
| 20260507005530 | 16 | 135 | 4.8 | 9.7 | 0.00 | 1.70 | 0.00 | 78 | 1010.3 |
| 20260507005030 | 16 | 160 | 1.6 | 8.0 | 0.00 | 1.73 | 0.00 | 78 | 1010.5 |
| 20260507004530 | 16 | 156 | 1.6 | 12.9 | 0.00 | 1.75 | 0.00 | 78 | 1010.5 |
| 20260507004033 | 16 | 184 | 6.4 | 12.9 | 0.00 | 1.75 | 0.00 | 78 | 1010.4 |
| 20260507003533 | 16 | 143 | 1.6 | 14.5 | 0.00 | 1.75 | 0.00 | 78 | 1010.3 |
| 20260507003030 | 16 | 175 | 6.4 | 14.5 | 0.00 | 1.75 | 0.00 | 78 | 1010.3 |
| 20260507002533 | 16 | 102 | 0.0 | 16.1 | 0.00 | 1.75 | 0.00 | 78 | 1010.2 |
| 20260507002030 | 16 | 37 | 1.6 | 9.7 | 0.00 | 1.75 | 0.00 | 78 | 1010.3 |
| 20260507001539 | 16 | 138 | 3.2 | 14.5 | 0.00 | 1.78 | 0.00 | 78 | 1010.2 |
| 20260507001033 | 16 | 234 | 3.2 | 16.1 | 0.00 | 1.78 | 0.00 | 78 | 1010.1 |
| 20260507000533 | 16 | 151 | 3.2 | 12.9 | 0.00 | 1.78 | 0.00 | 77 | 1010.2 |
| 20260507000039 | 16 | 140 | 4.8 | 12.9 | 0.00 | 1.78 | 0.00 | 77 | 1010.2 |
| 20260506235533 | 16 | 150 | 0.0 | 8.0 | 0.00 | 1.78 | 0.00 | 77 | 1010.3 |
| 20260506235036 | 16 | 130 | 3.2 | 8.0 | 0.00 | 1.78 | 0.00 | 77 | 1010.3 |
| 20260506234530 | 16 | 147 | 4.8 | 14.5 | 0.00 | 1.78 | 0.00 | 77 | 1010.4 |
| 20260506234030 | 17 | 121 | 6.4 | 14.5 | 0.00 | 1.78 | 0.00 | 76 | 1010.5 |
| 20260506233539 | 17 | 130 | 6.4 | 14.5 | 0.00 | 1.78 | 0.00 | 76 | 1010.4 |
| 20260506233033 | 17 | 134 | 3.2 | 12.9 | 0.00 | 1.78 | 0.00 | 76 | 1010.4 |
| 20260506232530 | 17 | 69 | 3.2 | 14.5 | 0.00 | 1.78 | 0.00 | 75 | 1010.3 |
| 20260506232030 | 17 | 157 | 3.2 | 11.3 | 0.00 | 1.78 | 0.00 | 75 | 1010.4 |
| 20260506231530 | 17 | 93 | 1.6 | 14.5 | 0.00 | 1.78 | 0.00 | 75 | 1010.4 |
| 20260506231030 | 17 | 131 | 1.6 | 9.7 | 0.00 | 1.78 | 0.00 | 75 | 1010.5 |
| 20260506230530 | 17 | 141 | 1.6 | 12.9 | 0.00 | 1.78 | 0.00 | 75 | 1010.5 |
| 20260506230033 | 17 | 171 | 8.0 | 12.9 | 0.00 | 1.78 | 0.00 | 74 | 1010.4 |
| 20260506225530 | 17 | 106 | 6.4 | 12.9 | 0.00 | 1.78 | 0.00 | 74 | 1010.4 |
| 20260506225030 | 17 | 131 | 3.2 | 14.5 | 0.00 | 1.78 | 0.00 | 74 | 1010.4 |
| 20260506224530 | 17 | 147 | 4.8 | 16.1 | 0.00 | 1.78 | 0.00 | 74 | 1010.4 |
| 20260506224030 | 17 | 146 | 4.8 | 8.0 | 0.00 | 1.78 | 0.00 | 74 | 1010.3 |
| 20260506223533 | 17 | 166 | 4.8 | 11.3 | 0.00 | 1.78 | 0.00 | 74 | 1010.3 |
| 20260506223030 | 17 | 172 | 3.2 | 6.4 | 0.00 | 1.78 | 0.00 | 74 | 1010.4 |
| 20260506222539 | 17 | 140 | 1.6 | 12.9 | 0.00 | 1.78 | 0.00 | 74 | 1010.5 |
| 20260506222033 | 17 | 154 | 1.6 | 14.5 | 0.00 | 1.78 | 0.00 | 74 | 1010.4 |
| 20260506221530 | 17 | 146 | 3.2 | 12.9 | 0.00 | 1.78 | 0.00 | 75 | 1010.4 |
| 20260506221036 | 17 | 103 | 4.8 | 11.3 | 0.00 | 1.78 | 0.00 | 75 | 1010.5 |
| 20260506220533 | 17 | 124 | 4.8 | 14.5 | 0.00 | 1.78 | 0.00 | 75 | 1010.5 |
| 20260506220030 | 17 | 211 | 0.0 | 6.4 | 0.00 | 1.78 | 0.00 | 77 | 1010.4 |
| 20260506215530 | 17 | 115 | 0.0 | 12.9 | 0.00 | 1.78 | 0.00 | 77 | 1010.4 |
| 20260506215033 | 17 | 157 | 3.2 | 17.7 | 0.00 | 1.78 | 0.00 | 78 | 1010.3 |
| 20260506214530 | 17 | 179 | 3.2 | 16.1 | 0.00 | 1.78 | 0.00 | 78 | 1010.3 |
| 20260506214039 | 17 | 208 | 3.2 | 9.7 | 0.00 | 1.78 | 0.00 | 78 | 1010.3 |
| 20260506213533 | 17 | 103 | 1.6 | 17.7 | 0.00 | 1.78 | 0.00 | 78 | 1010.4 |
| 20260506213039 | 17 | 141 | 3.2 | 8.0 | 0.00 | 1.78 | 0.00 | 78 | 1010.5 |
| 20260506212530 | 17 | 123 | 1.6 | 8.0 | 0.00 | 1.78 | 0.00 | 79 | 1010.5 |
| 20260506212033 | 17 | 128 | 1.6 | 8.0 | 0.00 | 1.78 | 0.00 | 78 | 1010.3 |
| 20260506211530 | 17 | 112 | 6.4 | 12.9 | 0.00 | 1.78 | 0.00 | 78 | 1010.3 |
| 20260506211030 | 17 | 139 | 14.5 | 14.5 | 0.00 | 1.78 | 0.00 | 78 | 1010.3 |
| 20260506210530 | 17 | 171 | 0.0 | 9.7 | 0.00 | 1.78 | 0.00 | 78 | 1010.3 |
| 20260506210030 | 17 | 222 | 0.0 | 14.5 | 0.00 | 1.78 | 0.00 | 78 | 1010.3 |
| 20260506205530 | 17 | 148 | 3.2 | 9.7 | 0.00 | 1.78 | 0.00 | 78 | 1010.3 |
| 20260506205033 | 17 | 133 | 4.8 | 11.3 | 0.00 | 1.78 | 0.00 | 78 | 1010.3 |
| 20260506204533 | 17 | 157 | 3.2 | 16.1 | 0.00 | 1.78 | 0.00 | 78 | 1010.3 |
| 20260506204033 | 17 | 103 | 12.9 | 12.9 | 0.00 | 1.78 | 0.00 | 78 | 1010.2 |
| 20260506203536 | 17 | 88 | 0.0 | 16.1 | 0.00 | 1.78 | 0.00 | 78 | 1010.1 |
| 20260506203033 | 17 | 135 | 1.6 | 14.5 | 0.00 | 1.78 | 0.00 | 78 | 1010.1 |
| 20260506202533 | 17 | 96 | 6.4 | 14.5 | 0.00 | 1.78 | 0.00 | 78 | 1010.1 |
| 20260506202030 | 17 | 146 | 1.6 | 11.3 | 0.00 | 1.78 | 0.00 | 78 | 1010.1 |
| 20260506201530 | 17 | 161 | 3.2 | 8.0 | 0.00 | 1.78 | 0.00 | 78 | 1010.1 |
| 20260506201033 | 17 | 127 | 1.6 | 6.4 | 0.00 | 1.78 | 0.00 | 78 | 1010.1 |
| 20260506200530 | 17 | 138 | 3.2 | 11.3 | 0.00 | 1.78 | 0.00 | 78 | 1010.0 |
| 20260506200036 | 17 | 146 | 0.0 | 12.9 | 0.00 | 1.78 | 0.00 | 78 | 1009.9 |
| 20260506195533 | 17 | 118 | 9.7 | 9.7 | 0.00 | 1.78 | 0.00 | 78 | 1009.9 |
| 20260506195030 | 17 | 132 | 0.0 | 8.0 | 0.00 | 1.78 | 0.00 | 77 | 1009.7 |
| 20260506194530 | 17 | 247 | 0.0 | 14.5 | 0.00 | 1.78 | 0.00 | 77 | 1009.6 |
| 20260506194033 | 17 | 234 | 4.8 | 6.4 | 0.00 | 1.78 | 0.00 | 78 | 1009.6 |
| 20260506193530 | 17 | 142 | 1.6 | 16.1 | 0.00 | 1.78 | 0.00 | 78 | 1009.6 |
| 20260506193036 | 17 | 123 | 12.9 | 12.9 | 0.00 | 1.78 | 0.00 | 78 | 1009.6 |
| 20260506192530 | 17 | 135 | 1.6 | 16.1 | 0.00 | 1.78 | 0.00 | 78 | 1009.5 |
| 20260506192036 | 17 | 123 | 0.0 | 4.8 | 0.00 | 1.78 | 0.00 | 78 | 1009.5 |
| 20260506191530 | 17 | 124 | 1.6 | 4.8 | 0.00 | 1.78 | 0.00 | 79 | 1009.4 |
| 20260506191039 | 17 | 132 | 1.6 | 14.5 | 0.00 | 1.78 | 0.00 | 79 | 1009.3 |
| 20260506190530 | 17 | 138 | 0.0 | 8.0 | 0.00 | 1.78 | 0.00 | 79 | 1009.3 |
| 20260506190039 | 17 | 175 | 4.8 | 12.9 | 0.00 | 1.78 | 0.00 | 79 | 1009.2 |
| 20260506185539 | 17 | 123 | 0.0 | 8.0 | 0.00 | 1.78 | 0.00 | 80 | 1009.2 |
| 20260506185030 | 17 | 129 | 1.6 | 12.9 | 0.00 | 1.78 | 0.00 | 80 | 1009.1 |
| 20260506184536 | 17 | 172 | 1.6 | 11.3 | 0.00 | 1.78 | 0.00 | 80 | 1009.0 |
| 20260506184033 | 17 | 139 | 8.0 | 12.9 | 0.00 | 1.78 | 0.00 | 80 | 1009.0 |
| 20260506183530 | 17 | 117 | 0.0 | 14.5 | 0.00 | 1.78 | 0.00 | 80 | 1008.9 |
| 20260506183033 | 17 | 103 | 11.3 | 12.9 | 0.00 | 1.78 | 0.00 | 80 | 1008.9 |
| 20260506182533 | 17 | 92 | 0.0 | 17.7 | 0.00 | 1.78 | 0.00 | 80 | 1008.8 |
| 20260506182033 | 17 | 132 | 1.6 | 14.5 | 0.00 | 1.78 | 0.00 | 81 | 1008.8 |
| 20260506181530 | 17 | 112 | 1.6 | 11.3 | 0.00 | 1.78 | 0.00 | 81 | 1008.6 |
| 20260506181036 | 17 | 117 | 4.8 | 14.5 | 0.00 | 1.78 | 0.00 | 81 | 1008.5 |
| 20260506180536 | 17 | 123 | 8.0 | 19.3 | 0.00 | 1.78 | 0.00 | 81 | 1008.4 |
| 20260506180033 | 17 | 154 | 3.2 | 16.1 | 0.00 | 1.78 | 0.00 | 81 | 1008.4 |
| 20260506175530 | 17 | 221 | 1.6 | 9.7 | 0.00 | 1.78 | 0.00 | 81 | 1008.3 |
| 20260506175033 | 17 | 158 | 4.8 | 14.5 | 0.00 | 1.78 | 0.00 | 81 | 1008.3 |
| 20260506174533 | 17 | 136 | 4.8 | 12.9 | 0.00 | 1.78 | 0.00 | 81 | 1008.4 |
| 20260506174030 | 17 | 217 | 3.2 | 16.1 | 0.00 | 1.78 | 0.00 | 81 | 1008.3 |
| 20260506173530 | 17 | 167 | 1.6 | 11.3 | 0.00 | 1.78 | 0.00 | 80 | 1008.3 |
| 20260506173036 | 17 | 209 | 8.0 | 17.7 | 0.00 | 1.78 | 0.00 | 80 | 1008.3 |
| 20260506172533 | 17 | 81 | 14.5 | 22.5 | 0.00 | 1.78 | 0.00 | 79 | 1008.3 |
| 20260506172030 | 17 | 139 | 3.2 | 16.1 | 0.00 | 1.78 | 0.00 | 79 | 1008.3 |
| 20260506171533 | 17 | 138 | 3.2 | 14.5 | 0.00 | 1.78 | 0.00 | 78 | 1008.3 |
| 20260506171033 | 17 | 130 | 4.8 | 12.9 | 0.00 | 1.78 | 0.00 | 78 | 1008.2 |
| 20260506170530 | 18 | 288 | 0.0 | 19.3 | 0.00 | 1.78 | 0.00 | 77 | 1008.3 |
| 20260506170030 | 18 | 107 | 9.7 | 16.1 | 0.00 | 1.78 | 0.00 | 77 | 1008.2 |
| 20260506165530 | 18 | 148 | 3.2 | 16.1 | 0.00 | 1.78 | 0.00 | 76 | 1008.1 |
| 20260506165033 | 18 | 165 | 6.4 | 17.7 | 0.00 | 1.78 | 0.00 | 76 | 1008.2 |
| 20260506164530 | 18 | 241 | 9.7 | 16.1 | 0.00 | 1.78 | 0.00 | 74 | 1008.2 |
| 20260506164036 | 19 | 133 | 8.0 | 17.7 | 0.00 | 1.78 | 0.00 | 75 | 1008.3 |
| 20260506163530 | 18 | 211 | 3.2 | 19.3 | 0.00 | 1.78 | 0.00 | 74 | 1008.3 |
| 20260506163039 | 19 | 121 | 3.2 | 12.9 | 0.00 | 1.78 | 0.00 | 76 | 1008.2 |
| 20260506162530 | 18 | 232 | 1.6 | 16.1 | 0.00 | 1.78 | 0.00 | 75 | 1008.2 |
| 20260506162033 | 18 | 155 | 9.7 | 14.5 | 0.00 | 1.78 | 0.00 | 75 | 1008.2 |
| 20260506161530 | 18 | 139 | 3.2 | 14.5 | 0.00 | 1.78 | 0.00 | 75 | 1008.2 |
| 20260506161033 | 19 | 138 | 0.0 | 8.0 | 0.00 | 1.78 | 0.00 | 75 | 1008.2 |
| 20260506160530 | 18 | 272 | 12.9 | 16.1 | 0.00 | 1.78 | 0.00 | 75 | 1008.2 |
| 20260506160030 | 18 | 30 | 1.6 | 16.1 | 0.00 | 1.78 | 0.00 | 76 | 1008.2 |
| 20260506155530 | 18 | 140 | 6.4 | 16.1 | 0.00 | 1.78 | 0.00 | 76 | 1008.1 |
| 20260506155030 | 18 | 211 | 1.6 | 17.7 | 0.00 | 1.78 | 0.00 | 77 | 1008.1 |
| 20260506154533 | 18 | 140 | 12.9 | 19.3 | 0.00 | 1.78 | 0.00 | 77 | 1008.1 |
| 20260506154030 | 19 | 105 | 4.8 | 12.9 | 0.00 | 1.78 | 0.00 | 77 | 1008.1 |
| 20260506153536 | 19 | 154 | 12.9 | 19.3 | 0.00 | 1.78 | 0.00 | 75 | 1008.1 |
| 20260506153030 | 20 | 123 | 4.8 | 14.5 | 0.00 | 1.78 | 0.00 | 75 | 1008.0 |
| 20260506152530 | 20 | 123 | 3.2 | 11.3 | 0.00 | 1.78 | 0.00 | 75 | 1007.9 |
| 20260506152030 | 19 | 265 | 4.8 | 22.5 | 0.00 | 1.78 | 0.00 | 76 | 1008.0 |
| 20260506151533 | 20 | 138 | 11.3 | 20.9 | 0.00 | 1.78 | 0.00 | 76 | 1008.0 |
| 20260506151030 | 20 | 138 | 14.5 | 17.7 | 0.00 | 1.78 | 0.00 | 76 | 1008.0 |
| 20260506150536 | 20 | 284 | 3.2 | 19.3 | 0.00 | 1.78 | 0.00 | 76 | 1008.0 |
| 20260506150033 | 20 | 123 | 4.8 | 19.3 | 0.00 | 1.78 | 0.00 | 76 | 1008.0 |
| 20260506145539 | 20 | 146 | 4.8 | 11.3 | 0.00 | 1.78 | 0.00 | 76 | 1008.0 |
| 20260506145033 | 19 | 323 | 0.0 | 14.5 | 0.00 | 1.78 | 0.00 | 77 | 1008.0 |
| 20260506144539 | 19 | 136 | 8.0 | 17.7 | 0.00 | 1.78 | 0.00 | 76 | 1008.0 |
| 20260506144030 | 19 | 154 | 4.8 | 12.9 | 0.00 | 1.78 | 0.00 | 76 | 1008.0 |
| 20260506143530 | 19 | 275 | 4.8 | 14.5 | 0.00 | 1.78 | 0.00 | 77 | 1008.0 |
| 20260506143030 | 18 | 199 | 1.6 | 17.7 | 0.00 | 1.78 | 0.00 | 79 | 1008.0 |
| 20260506142530 | 18 | 153 | 3.2 | 12.9 | 0.00 | 1.78 | 0.00 | 78 | 1008.0 |
| 20260506142030 | 19 | 159 | 1.6 | 12.9 | 0.00 | 1.78 | 0.00 | 76 | 1008.0 |
| 20260506141530 | 19 | 124 | 4.8 | 17.7 | 0.00 | 1.78 | 0.00 | 76 | 1008.0 |
| 20260506141030 | 19 | 148 | 8.0 | 19.3 | 0.00 | 1.78 | 0.00 | 75 | 1008.0 |
| 20260506140533 | 20 | 150 | 12.9 | 16.1 | 0.00 | 1.78 | 0.00 | 73 | 1008.1 |
| 20260506140033 | 20 | 145 | 9.7 | 14.5 | 0.00 | 1.78 | 0.00 | 71 | 1008.1 |
| 20260506135530 | 20 | 180 | 3.2 | 14.5 | 0.00 | 1.78 | 0.00 | 72 | 1008.0 |
| 20260506135039 | 20 | 142 | 3.2 | 16.1 | 0.00 | 1.78 | 0.00 | 72 | 1008.2 |
| 20260506134536 | 20 | 131 | 8.0 | 11.3 | 0.00 | 1.78 | 0.00 | 71 | 1008.1 |
| 20260506134033 | 20 | 202 | 1.6 | 14.5 | 0.00 | 1.78 | 0.00 | 69 | 1008.2 |
| 20260506133536 | 20 | 138 | 4.8 | 17.7 | 0.00 | 1.78 | 0.00 | 69 | 1008.2 |
| 20260506133030 | 20 | 165 | 8.0 | 14.5 | 0.00 | 1.78 | 0.00 | 71 | 1008.3 |
| 20260506132533 | 20 | 136 | 8.0 | 17.7 | 0.00 | 1.78 | 0.00 | 70 | 1008.3 |
| 20260506132033 | 20 | 212 | 1.6 | 16.1 | 0.00 | 1.78 | 0.00 | 71 | 1008.3 |
| 20260506131530 | 20 | 152 | 3.2 | 17.7 | 0.00 | 1.78 | 0.00 | 71 | 1008.3 |
| 20260506131030 | 20 | 164 | 9.7 | 22.5 | 0.00 | 1.78 | 0.00 | 73 | 1008.3 |
| 20260506130530 | 20 | 179 | 4.8 | 16.1 | 0.00 | 1.78 | 0.00 | 73 | 1008.2 |
| 20260506130030 | 20 | 207 | 6.4 | 17.7 | 0.00 | 1.78 | 0.00 | 73 | 1008.2 |
| 20260506125530 | 20 | 150 | 4.8 | 16.1 | 0.00 | 1.78 | 0.00 | 73 | 1008.3 |
| 20260506125033 | 20 | 130 | 4.8 | 16.1 | 0.00 | 1.78 | 0.00 | 74 | 1008.3 |
| 20260506124530 | 20 | 142 | 4.8 | 14.5 | 0.00 | 1.78 | 0.00 | 73 | 1008.3 |
| 20260506124030 | 20 | 184 | 3.2 | 12.9 | 0.00 | 1.78 | 0.00 | 73 | 1008.2 |
| 20260506123530 | 20 | 169 | 0.0 | 11.3 | 0.00 | 1.78 | 0.00 | 74 | 1008.1 |